Weather History for RJCC - December, 2013

Change the Weather History Date:

Saturday, December 7, 2013

  Actual Average Record
Temperature  
Mean Temperature 29 °F -  
Max Temperature 37 °F 30 °F 44 °F (2004)
Min Temperature 21 °F 12 °F 3 °F (2014)
Degree Days  
Heating Degree Days 36    
Moisture  
Dew Point 22 °F    
Average Humidity 75    
Maximum Humidity 100    
Minimum Humidity 45    
Precipitation  
Precipitation 0.00 in - - ()
Sea Level Pressure  
Sea Level Pressure 29.81 in    
Wind  
Wind Speed 5 mph ()    
Max Wind Speed 13 mph    
Max Gust Speed -    
Visibility 6.2 miles    
Events Snow    
Averages and records for this station are not official NWS values.
T = Trace of Precipitation, MM = Missing Value Source: Averaged Metar Reports

Daily Weather History Graph

Daily Weather History Graph

Search for Another Location

Airport or City:

Trip Planner

Search our weather history database for the weather conditions in past years. The results will help you decide how hot, cold, wet, or windy it might be!

Date:

Astronomy

Dec. 07, 2013 Rise Set
Actual Time 6:49 AM JST 3:59 PM JST
Civil Twilight 6:17 AM JST 4:31 PM JST
Nautical Twilight 5:42 AM JST 5:06 PM JST
Astronomical Twilight 5:08 AM JST 5:40 PM JST
Moon 10:06 AM JST (12/7) 9:00 PM JST (12/7)
Length of Visible Light 10h 13m
Length of Day
9h 09m
Waxing Crescent, 23% of the Moon is Illuminated
Dec 7
Waxing Crescent
Dec 10
First Quarter
Dec 17
Full
Dec 25
Last Quarter
Jan 1
New

Hourly Weather History & Observations

Time (JST) Temp. Windchill Dew Point Humidity Pressure Visibility Wind Dir Wind Speed Gust Speed Precip Events Conditions
12:00 AM 32.0 °F 22.5 °F 21.2 °F 64% 29.77 in 6.2 mi WSW 12.7 mph - N/A   Partly Cloudy
12:30 AM 32.0 °F 23.0 °F 21.2 °F 64% 29.77 in 6.2 mi WSW 11.5 mph - N/A   Partly Cloudy
1:00 AM 30.2 °F 22.6 °F 21.2 °F 69% 29.77 in 6.2 mi SW 8.1 mph - N/A   Partly Cloudy
1:30 AM 30.2 °F 23.4 °F 21.2 °F 69% 29.77 in 6.2 mi SW 6.9 mph - N/A   Partly Cloudy
2:00 AM 30.2 °F 26.7 °F 21.2 °F 69% 29.77 in 6.2 mi South 3.5 mph - N/A   Partly Cloudy
2:30 AM 28.4 °F - 21.2 °F 74% 29.77 in 6.2 mi Variable 2.3 mph - N/A   Partly Cloudy
3:00 AM 26.6 °F - 21.2 °F 80% 29.77 in 6.2 mi Variable 2.3 mph - N/A   Partly Cloudy
3:30 AM 24.8 °F 19.1 °F 21.2 °F 86% 29.77 in 6.2 mi East 4.6 mph - N/A   Partly Cloudy
4:00 AM 26.6 °F 20.0 °F 21.2 °F 80% 29.77 in 6.2 mi SE 5.8 mph - N/A   Partly Cloudy
4:30 AM 23.0 °F - 21.2 °F 93% 29.77 in 6.2 mi ESE 2.3 mph - N/A   Partly Cloudy
5:00 AM 24.8 °F - 21.2 °F 86% 29.77 in 6.2 mi Variable 2.3 mph - N/A   Partly Cloudy
5:30 AM 24.8 °F 20.5 °F 21.2 °F 86% 29.80 in 6.2 mi Variable 3.5 mph - N/A   Partly Cloudy
6:00 AM 21.2 °F - 19.4 °F 93% 29.80 in 6.2 mi Variable 1.2 mph - N/A   Partly Cloudy
6:30 AM 21.2 °F - 19.4 °F 93% 29.80 in 6.2 mi Variable 2.3 mph - N/A   Partly Cloudy
7:00 AM 23.0 °F 17.0 °F 19.4 °F 86% 29.80 in 6.2 mi SW 4.6 mph - N/A   Partly Cloudy
7:30 AM 24.8 °F 20.5 °F 17.6 °F 74% 29.80 in 6.2 mi ENE 3.5 mph - N/A   Partly Cloudy
8:00 AM 28.4 °F - 21.2 °F 74% 29.80 in 6.2 mi Variable 2.3 mph - N/A   Partly Cloudy
8:30 AM 32.0 °F 25.6 °F 21.2 °F 64% 29.80 in 6.2 mi SW 6.9 mph - N/A   Partly Cloudy
9:00 AM 33.8 °F 30.8 °F 21.2 °F 60% 29.80 in 6.2 mi SW 3.5 mph - N/A   Partly Cloudy
9:30 AM 33.8 °F - 21.2 °F 60% 29.80 in 6.2 mi Variable 2.3 mph - N/A   Partly Cloudy
10:00 AM 35.6 °F - 19.4 °F 52% 29.80 in 6.2 mi Variable 2.3 mph - N/A   Partly Cloudy
10:30 AM 35.6 °F 32.8 °F 19.4 °F 52% 29.80 in 6.2 mi NNE 3.5 mph - N/A   Partly Cloudy
11:00 AM 35.6 °F - 21.2 °F 56% 29.77 in 6.2 mi Variable 2.3 mph - N/A   Partly Cloudy
11:30 AM 35.6 °F 30.7 °F 19.4 °F 52% 29.77 in 6.2 mi NNE 5.8 mph - N/A   Scattered Clouds
12:00 PM 35.6 °F 32.8 °F 17.6 °F 48% 29.77 in 6.2 mi East 3.5 mph - N/A   Scattered Clouds
12:30 PM 37.4 °F 32.8 °F 17.6 °F 45% 29.77 in 6.2 mi WNW 5.8 mph - N/A   Scattered Clouds
12:50 PM 35.6 °F 27.5 °F 21.2 °F 56% 29.77 in 6.2 mi North 11.5 mph - N/A   Scattered Clouds
1:00 PM 35.6 °F 28.0 °F 23.0 °F 60% 29.77 in 6.2 mi North 10.4 mph - N/A   Scattered Clouds
1:30 PM 37.4 °F 32.8 °F 23.0 °F 56% 29.77 in 6.2 mi North 5.8 mph - N/A   Mostly Cloudy
2:00 PM 33.8 °F 27.7 °F 21.2 °F 60% 29.77 in 6.2 mi North 6.9 mph - N/A   Mostly Cloudy
2:10 PM 33.8 °F 29.6 °F 23.0 °F 65% 29.77 in 6.2 mi North 4.6 mph - N/A Snow Light Small Hail Showers
2:18 PM 33.8 °F 30.8 °F 23.0 °F 65% 29.80 in 6.2 mi North 3.5 mph - N/A Snow Light Snow Showers
2:30 PM 35.6 °F 29.9 °F 23.0 °F 60% 29.80 in 6.2 mi North 6.9 mph - N/A Snow Light Snow Showers
3:00 PM 33.8 °F 30.8 °F 23.0 °F 65% 29.80 in 6.2 mi NE 3.5 mph - N/A Snow Light Snow Showers
3:30 PM 32.0 °F 28.7 °F 26.6 °F 80% 29.80 in 6.2 mi NNE 3.5 mph - N/A   Scattered Clouds
4:00 PM 32.0 °F 28.7 °F 26.6 °F 80% 29.80 in 6.2 mi NNE 3.5 mph - N/A   Scattered Clouds
4:30 PM 30.2 °F 26.7 °F 24.8 °F 80% 29.83 in 6.2 mi NE 3.5 mph - N/A   Partly Cloudy
5:00 PM 30.2 °F 26.7 °F 26.6 °F 86% 29.83 in 6.2 mi NE 3.5 mph - N/A   Partly Cloudy
5:30 PM 30.2 °F - 24.8 °F 80% 29.83 in 6.2 mi NE 2.3 mph - N/A   Partly Cloudy
6:00 PM 30.2 °F - 24.8 °F 80% 29.86 in 6.2 mi Variable 1.2 mph - N/A   Partly Cloudy
6:30 PM 28.4 °F - 26.6 °F 93% 29.86 in 6.2 mi Variable 2.3 mph - N/A   Partly Cloudy
7:00 PM 26.6 °F 22.6 °F 24.8 °F 93% 29.83 in 6.2 mi SW 3.5 mph - N/A   Partly Cloudy
7:30 PM 26.6 °F 21.2 °F 24.8 °F 93% 29.86 in 6.2 mi SW 4.6 mph - N/A   Partly Cloudy
8:00 PM 24.8 °F - 24.8 °F 100% 29.86 in 6.2 mi Variable 1.2 mph - N/A   Partly Cloudy
8:30 PM 24.8 °F - 23.0 °F 93% 29.86 in 6.2 mi Variable 2.3 mph - N/A   Scattered Clouds
9:00 PM 26.6 °F - 24.8 °F 93% 29.86 in 6.2 mi Variable 2.3 mph - N/A   Mostly Cloudy
9:30 PM 28.4 °F - 26.6 °F 93% 29.86 in 6.2 mi Variable 2.3 mph - N/A Snow Light Snow Showers
10:00 PM 26.6 °F 22.6 °F 24.8 °F 93% 29.89 in 6.2 mi South 3.5 mph - N/A   Scattered Clouds
10:30 PM 26.6 °F - 24.8 °F 93% 29.89 in 6.2 mi Variable 2.3 mph - N/A   Mostly Cloudy
11:00 PM 26.6 °F 20.0 °F 24.8 °F 93% 29.89 in 6.2 mi WSW 5.8 mph - N/A Snow Light Snow Showers
11:30 PM 28.4 °F 24.6 °F 24.8 °F 86% 29.89 in 6.2 mi West 3.5 mph - N/A Snow Light Snow Showers